User: anonymous   Login
Location: Ellerstadt
(49.4644°N, 8.2615°E)
Time: 05:50:10
(UTC+00:00)
Language:

CSL-04 Debris - Orbit

View from above orbital plane
View from above orbital plane
View from above satellite
View from above satellite

Ground track
Ground track

The orbit data is extracted from the following two-line orbital elements,

1 25733U 99025D   21134.53082705  .00000071  00000-0  58129-4 0  9993
2 25733  98.9116 169.8809 0016132 101.1901 259.1087 14.16459040136560
Epoch (UTC): 14 May 2021 12:44:23
Eccentricity: 0.0016132
inclination: 98.9116°
perigee height: 826 km
apogee height: 849 km
right ascension of ascending node: 169.8809°
argument of perigee: 101.1901°
revolutions per day: 14.16459040
mean anomaly at epoch: 259.1087°
orbit number at epoch: 13656

The dashed part of the orbit path shows where the satellite is in the earth's shadow,  

DLR